Location: ???
(35.5616°N, 139.7977°E)
Time: 02:38:31
(UTC+00:00)

CENTAUR R/B - Pass Details

Date: 17 November 2025
Orbit: 633 x 1547 km, 63.4° (Epoch: 09 December)

Event Time Altitude Azimuth Distance (km) Brightness Sun altitude
Exits shadow 19:56:08 - 331° (NNW) 3,803 5.2 -16.9°
Reaches altitude 10° 19:57:18 10° 332° (NNW) 3,430 5.0 -16.7°
Maximum altitude 20:06:02 75° 58° (ENE) 1,551 3.6 -14.9°
Drops below altitude 10° 20:15:32 10° 143° (SE) 3,717 6.3 -13.1°
Sets 20:18:35 0° 145° (SE) 4,675 6.9 -12.5°
